| time (UTC) | temp F | wind direction | speed MPH | gust MPH | rain 1hr in | rain 24hr in | rain mn in | humidity % | barometer mb |
| 20260902194540 | 66 | 276 | 0.0 | 0.0 | 0.00 | 0.00 | 0.00 | 68 | 1024.1 |
| 20260902194331 | 66 | 276 | 0.0 | 0.0 | 0.00 | 0.00 | 0.00 | 68 | 1023.9 |
| 20260902194128 | 66 | 277 | 0.0 | 0.0 | 0.00 | 0.00 | 0.00 | 68 | 1024.0 |
| 20260902193918 | 66 | 276 | 0.0 | 0.0 | 0.00 | 0.00 | 0.00 | 68 | 1024.0 |
| 20260902193357 | 66 | 276 | 0.0 | 0.0 | 0.00 | 0.00 | 0.00 | 69 | 1023.9 |
| 20260902193158 | 66 | 276 | 0.0 | 0.0 | 0.00 | 0.00 | 0.00 | 69 | 1023.8 |
| 20260902192951 | 66 | 276 | 0.0 | 0.0 | 0.00 | 0.00 | 0.00 | 69 | 1023.8 |
| 20260902192427 | 66 | 276 | 0.0 | 0.0 | 0.00 | 0.00 | 0.00 | 69 | 1023.8 |
| 20260902192217 | 66 | 276 | 0.0 | 0.0 | 0.00 | 0.00 | 0.00 | 69 | 1023.7 |
| 20260902192017 | 66 | 277 | 0.0 | 0.0 | 0.00 | 0.00 | 0.00 | 68 | 1023.7 |
| 20260902191810 | 66 | 276 | 0.0 | 0.0 | 0.00 | 0.00 | 0.00 | 68 | 1023.7 |
| 20260902191601 | 66 | 277 | 0.0 | 0.0 | 0.00 | 0.00 | 0.00 | 68 | 1023.7 |
| 20260902191354 | 66 | 276 | 0.0 | 0.0 | 0.00 | 0.00 | 0.00 | 68 | 1023.7 |
| 20260902191151 | 66 | 276 | 0.0 | 0.0 | 0.00 | 0.00 | 0.00 | 68 | 1023.7 |
| 20260902190945 | 66 | 277 | 0.0 | 0.0 | 0.00 | 0.00 | 0.00 | 68 | 1023.6 |
| 20260902190742 | 66 | 276 | 0.0 | 0.0 | 0.00 | 0.00 | 0.00 | 68 | 1023.7 |
| 20260902190537 | 66 | 276 | 0.0 | 0.0 | 0.00 | 0.00 | 0.00 | 68 | 1023.6 |
| 20260902190327 | 66 | 276 | 0.0 | 0.0 | 0.00 | 0.00 | 0.00 | 68 | 1023.6 |
| 20260902185801 | 66 | 276 | 0.0 | 0.0 | 0.00 | 0.00 | 0.00 | 69 | 1023.4 |
| 20260902185559 | 67 | 276 | 0.0 | 0.0 | 0.00 | 0.00 | 0.00 | 68 | 1023.4 |
| 20260902185355 | 67 | 276 | 0.0 | 0.0 | 0.00 | 0.00 | 0.00 | 68 | 1023.4 |
| 20260902185153 | 67 | 277 | 0.0 | 0.0 | 0.00 | 0.00 | 0.00 | 69 | 1023.4 |
| 20260902184954 | 67 | 276 | 0.0 | 0.0 | 0.00 | 0.00 | 0.00 | 69 | 1023.4 |
| 20260902184750 | 67 | 276 | 0.0 | 0.0 | 0.00 | 0.00 | 0.00 | 68 | 1023.3 |
| 20260902184551 | 67 | 276 | 0.0 | 0.0 | 0.00 | 0.00 | 0.00 | 68 | 1023.3 |
| 20260902184349 | 67 | 277 | 0.0 | 0.0 | 0.00 | 0.00 | 0.00 | 68 | 1023.3 |
| 20260902184144 | 67 | 277 | 0.0 | 0.0 | 0.00 | 0.00 | 0.00 | 68 | 1023.3 |
| 20260902183943 | 67 | 276 | 0.0 | 0.0 | 0.00 | 0.00 | 0.00 | 68 | 1023.2 |
| 20260902183742 | 67 | 276 | 0.0 | 0.0 | 0.00 | 0.00 | 0.00 | 68 | 1023.2 |
| 20260902183535 | 67 | 276 | 0.0 | 0.0 | 0.00 | 0.00 | 0.00 | 68 | 1023.0 |
| 20260902183012 | 67 | 276 | 0.0 | 0.0 | 0.00 | 0.00 | 0.00 | 68 | 1023.0 |
| 20260902182805 | 68 | 276 | 0.0 | 4.0 | 0.00 | 0.00 | 0.00 | 68 | 1023.0 |
| 20260902182604 | 68 | 276 | 0.0 | 4.0 | 0.00 | 0.00 | 0.00 | 68 | 1023.0 |
| 20260902182036 | 68 | 298 | 0.0 | 4.0 | 0.00 | 0.00 | 0.00 | 67 | 1023.0 |
| 20260902181833 | 68 | 299 | 0.0 | 4.0 | 0.00 | 0.00 | 0.00 | 67 | 1023.0 |
| 20260902181633 | 68 | 290 | 0.0 | 4.0 | 0.00 | 0.00 | 0.00 | 67 | 1023.0 |
| 20260902181426 | 69 | 293 | 0.0 | 4.0 | 0.00 | 0.00 | 0.00 | 66 | 1022.9 |
| 20260902181218 | 69 | 281 | 0.0 | 4.0 | 0.00 | 0.00 | 0.00 | 66 | 1022.9 |
| 20260902181016 | 69 | 280 | 0.0 | 1.0 | 0.00 | 0.00 | 0.00 | 65 | 1022.9 |
| 20260902180807 | 69 | 240 | 0.0 | 0.0 | 0.00 | 0.00 | 0.00 | 65 | 1022.8 |
| 20260902180605 | 69 | 240 | 0.0 | 0.0 | 0.00 | 0.00 | 0.00 | 65 | 1022.9 |
| 20260902180403 | 69 | 240 | 0.0 | 1.0 | 0.00 | 0.00 | 0.00 | 65 | 1022.8 |
| 20260902180157 | 69 | 242 | 0.0 | 1.0 | 0.00 | 0.00 | 0.00 | 65 | 1022.8 |
| 20260902175636 | 69 | 242 | 0.0 | 0.0 | 0.00 | 0.00 | 0.00 | 65 | 1022.8 |
| 20260902175434 | 69 | 242 | 0.0 | 0.0 | 0.00 | 0.00 | 0.00 | 65 | 1022.8 |
| 20260902174908 | 70 | 238 | 0.0 | 0.0 | 0.00 | 0.00 | 0.00 | 65 | 1022.7 |
| 20260902174335 | 70 | 231 | 0.0 | 0.0 | 0.00 | 0.00 | 0.00 | 64 | 1022.6 |
| 20260902173813 | 70 | 231 | 0.0 | 0.0 | 0.00 | 0.00 | 0.00 | 64 | 1022.7 |
| 20260902173614 | 70 | 231 | 0.0 | 0.0 | 0.00 | 0.00 | 0.00 | 64 | 1022.7 |
| 20260902173409 | 70 | 231 | 0.0 | 0.0 | 0.00 | 0.00 | 0.00 | 64 | 1022.6 |
| 20260902173201 | 70 | 231 | 0.0 | 0.0 | 0.00 | 0.00 | 0.00 | 63 | 1022.7 |
| 20260902173002 | 70 | 231 | 0.0 | 0.0 | 0.00 | 0.00 | 0.00 | 63 | 1022.6 |
| 20260902172757 | 71 | 231 | 0.0 | 0.0 | 0.00 | 0.00 | 0.00 | 63 | 1022.6 |
| 20260902172549 | 71 | 231 | 0.0 | 0.0 | 0.00 | 0.00 | 0.00 | 63 | 1022.6 |
| 20260902172340 | 71 | 231 | 0.0 | 1.0 | 0.00 | 0.00 | 0.00 | 63 | 1022.7 |
| 20260902172132 | 71 | 231 | 0.0 | 1.0 | 0.00 | 0.00 | 0.00 | 64 | 1022.7 |
| 20260902171922 | 71 | 231 | 0.0 | 1.0 | 0.00 | 0.00 | 0.00 | 64 | 1022.8 |
| 20260902171403 | 71 | 231 | 0.0 | 0.0 | 0.00 | 0.00 | 0.00 | 62 | 1022.6 |
| 20260902171159 | 71 | 231 | 0.0 | 0.0 | 0.00 | 0.00 | 0.00 | 63 | 1022.7 |
| 20260902170959 | 71 | 231 | 0.0 | 0.0 | 0.00 | 0.00 | 0.00 | 62 | 1022.7 |
| 20260902170752 | 71 | 231 | 0.0 | 0.0 | 0.00 | 0.00 | 0.00 | 63 | 1022.7 |
| 20260902165917 | 71 | 231 | 0.0 | 2.0 | 0.00 | 0.00 | 0.00 | 61 | 1022.7 |
| 20260902165717 | 71 | 231 | 0.0 | 2.0 | 0.00 | 0.00 | 0.00 | 61 | 1022.6 |
| 20260902165514 | 71 | 231 | 0.0 | 2.0 | 0.00 | 0.00 | 0.00 | 61 | 1022.6 |
| 20260902165309 | 72 | 231 | 0.0 | 2.0 | 0.00 | 0.00 | 0.00 | 61 | 1022.6 |
| 20260902165100 | 72 | 231 | 0.0 | 2.0 | 0.00 | 0.00 | 0.00 | 62 | 1022.6 |
| 20260902164854 | 72 | 239 | 0.0 | 2.0 | 0.00 | 0.00 | 0.00 | 62 | 1022.7 |
| 20260902164654 | 72 | 238 | 0.0 | 2.0 | 0.00 | 0.00 | 0.00 | 61 | 1022.6 |
| 20260902164446 | 72 | 238 | 0.0 | 2.0 | 0.00 | 0.00 | 0.00 | 62 | 1022.6 |
| 20260902164239 | 72 | 235 | 0.0 | 2.0 | 0.00 | 0.00 | 0.00 | 61 | 1022.6 |
| 20260902164034 | 73 | 250 | 0.0 | 1.0 | 0.00 | 0.00 | 0.00 | 61 | 1022.6 |
| 20260902163825 | 73 | 237 | 0.0 | 1.0 | 0.00 | 0.00 | 0.00 | 60 | 1022.7 |
| 20260902163623 | 73 | 259 | 0.0 | 1.0 | 0.00 | 0.00 | 0.00 | 61 | 1022.6 |
| 20260902163418 | 73 | 261 | 0.0 | 0.0 | 0.00 | 0.00 | 0.00 | 60 | 1022.6 |
| 20260902163218 | 73 | 262 | 0.0 | 0.0 | 0.00 | 0.00 | 0.00 | 59 | 1022.6 |
| 20260902163012 | 74 | 262 | 0.0 | 5.0 | 0.00 | 0.00 | 0.00 | 59 | 1022.6 |
| 20260902162807 | 74 | 282 | 0.0 | 5.0 | 0.00 | 0.00 | 0.00 | 59 | 1022.7 |
| 20260902162557 | 74 | 276 | 0.0 | 5.0 | 0.00 | 0.00 | 0.00 | 58 | 1022.6 |
| 20260902162034 | 74 | 297 | 1.0 | 5.0 | 0.00 | 0.00 | 0.00 | 57 | 1022.6 |
| 20260902161831 | 74 | 296 | 1.0 | 5.0 | 0.00 | 0.00 | 0.00 | 56 | 1022.6 |
| 20260902161308 | 74 | 321 | 0.0 | 4.0 | 0.00 | 0.00 | 0.00 | 58 | 1022.6 |
| 20260902161105 | 74 | 285 | 0.0 | 4.0 | 0.00 | 0.00 | 0.00 | 57 | 1022.7 |
| 20260902160900 | 74 | 291 | 1.0 | 4.0 | 0.00 | 0.00 | 0.00 | 57 | 1022.7 |
| 20260902160700 | 74 | 276 | 1.0 | 4.0 | 0.00 | 0.00 | 0.00 | 56 | 1022.7 |
| 20260902160135 | 74 | 302 | 1.0 | 7.0 | 0.00 | 0.00 | 0.00 | 58 | 1022.6 |
| 20260902155933 | 74 | 288 | 1.0 | 7.0 | 0.00 | 0.00 | 0.00 | 58 | 1022.7 |
| 20260902155410 | 74 | 271 | 1.0 | 7.0 | 0.00 | 0.00 | 0.00 | 58 | 1022.6 |
| 20260902155204 | 74 | 264 | 1.0 | 7.0 | 0.00 | 0.00 | 0.00 | 57 | 1022.5 |
| 20260902154958 | 74 | 248 | 1.0 | 7.0 | 0.00 | 0.00 | 0.00 | 58 | 1022.5 |
| 20260902154750 | 74 | 292 | 0.0 | 7.0 | 0.00 | 0.00 | 0.00 | 57 | 1022.5 |
| 20260902154540 | 74 | 248 | 0.0 | 7.0 | 0.00 | 0.00 | 0.00 | 59 | 1022.4 |
| 20260902154337 | 74 | 228 | 0.0 | 6.0 | 0.00 | 0.00 | 0.00 | 57 | 1022.5 |
| 20260902154133 | 74 | 311 | 0.0 | 6.0 | 0.00 | 0.00 | 0.00 | 59 | 1022.5 |
| 20260902153929 | 74 | 264 | 0.0 | 6.0 | 0.00 | 0.00 | 0.00 | 60 | 1022.5 |
| 20260902153727 | 74 | 302 | 1.0 | 6.0 | 0.00 | 0.00 | 0.00 | 59 | 1022.5 |
| 20260902153159 | 73 | 260 | 1.0 | 6.0 | 0.00 | 0.00 | 0.00 | 59 | 1022.5 |
| 20260902152954 | 73 | 267 | 1.0 | 6.0 | 0.00 | 0.00 | 0.00 | 59 | 1022.5 |
| 20260902152746 | 73 | 309 | 1.0 | 6.0 | 0.00 | 0.00 | 0.00 | 58 | 1022.5 |
| 20260902152544 | 73 | 259 | 1.0 | 6.0 | 0.00 | 0.00 | 0.00 | 58 | 1022.5 |
| 20260902152343 | 73 | 289 | 1.0 | 6.0 | 0.00 | 0.00 | 0.00 | 59 | 1022.5 |
| 20260902152140 | 73 | 278 | 1.0 | 6.0 | 0.00 | 0.00 | 0.00 | 57 | 1022.5 |
| 20260902151940 | 73 | 250 | 1.0 | 6.0 | 0.00 | 0.00 | 0.00 | 57 | 1022.6 |
| 20260902151738 | 73 | 295 | 1.0 | 6.0 | 0.00 | 0.00 | 0.00 | 56 | 1022.5 |
| 20260902151531 | 74 | 285 | 1.0 | 6.0 | 0.00 | 0.00 | 0.00 | 57 | 1022.5 |
| 20260902151326 | 74 | 270 | 1.0 | 4.0 | 0.00 | 0.00 | 0.00 | 59 | 1022.6 |
| 20260902151124 | 74 | 259 | 1.0 | 4.0 | 0.00 | 0.00 | 0.00 | 57 | 1022.5 |
| 20260902150923 | 74 | 292 | 1.0 | 8.0 | 0.00 | 0.00 | 0.00 | 57 | 1022.6 |
| 20260902150724 | 74 | 295 | 1.0 | 8.0 | 0.00 | 0.00 | 0.00 | 56 | 1022.6 |
| 20260902150515 | 74 | 297 | 1.0 | 8.0 | 0.00 | 0.00 | 0.00 | 55 | 1022.5 |
| 20260902150309 | 74 | 281 | 1.0 | 8.0 | 0.00 | 0.00 | 0.00 | 57 | 1022.5 |
| 20260902150103 | 74 | 295 | 2.0 | 8.0 | 0.00 | 0.00 | 0.00 | 57 | 1022.4 |
| 20260902145901 | 74 | 261 | 2.0 | 8.0 | 0.00 | 0.00 | 0.00 | 57 | 1022.5 |
| 20260902145659 | 74 | 248 | 3.0 | 8.0 | 0.00 | 0.00 | 0.00 | 54 | 1022.5 |
| 20260902145448 | 74 | 245 | 2.0 | 8.0 | 0.00 | 0.00 | 0.00 | 55 | 1022.5 |
| 20260902145245 | 75 | 260 | 2.0 | 8.0 | 0.00 | 0.00 | 0.00 | 54 | 1022.5 |
| 20260902145044 | 75 | 240 | 2.0 | 8.0 | 0.00 | 0.00 | 0.00 | 53 | 1022.5 |
| 20260902144844 | 75 | 254 | 2.0 | 7.0 | 0.00 | 0.00 | 0.00 | 55 | 1022.6 |
| 20260902144637 | 75 | 243 | 2.0 | 7.0 | 0.00 | 0.00 | 0.00 | 54 | 1022.5 |
| 20260902144437 | 75 | 243 | 2.0 | 7.0 | 0.00 | 0.00 | 0.00 | 55 | 1022.5 |
| 20260902144231 | 75 | 259 | 2.0 | 7.0 | 0.00 | 0.00 | 0.00 | 54 | 1022.6 |
| 20260902144024 | 75 | 233 | 2.0 | 7.0 | 0.00 | 0.00 | 0.00 | 54 | 1022.4 |
| 20260902143819 | 75 | 257 | 2.0 | 7.0 | 0.00 | 0.00 | 0.00 | 56 | 1022.6 |
| 20260902143613 | 75 | 239 | 2.0 | 6.0 | 0.00 | 0.00 | 0.00 | 57 | 1022.5 |
| 20260902143406 | 75 | 288 | 1.0 | 6.0 | 0.00 | 0.00 | 0.00 | 55 | 1022.5 |
| 20260902143203 | 75 | 293 | 1.0 | 6.0 | 0.00 | 0.00 | 0.00 | 53 | 1022.4 |
| 20260902143001 | 75 | 280 | 1.0 | 6.0 | 0.00 | 0.00 | 0.00 | 56 | 1022.5 |
| 20260902142756 | 75 | 278 | 1.0 | 6.0 | 0.00 | 0.00 | 0.00 | 53 | 1022.5 |
| 20260902142547 | 75 | 312 | 1.0 | 6.0 | 0.00 | 0.00 | 0.00 | 55 | 1022.5 |
| 20260902142017 | 74 | 288 | 2.0 | 6.0 | 0.00 | 0.00 | 0.00 | 56 | 1022.5 |
| 20260902141817 | 74 | 281 | 1.0 | 6.0 | 0.00 | 0.00 | 0.00 | 56 | 1022.4 |
| 20260902141616 | 74 | 299 | 1.0 | 5.0 | 0.00 | 0.00 | 0.00 | 58 | 1022.5 |
| 20260902141416 | 74 | 226 | 1.0 | 5.0 | 0.00 | 0.00 | 0.00 | 56 | 1022.5 |
| 20260902141207 | 74 | 295 | 1.0 | 5.0 | 0.00 | 0.00 | 0.00 | 56 | 1022.5 |
| 20260902140957 | 74 | 309 | 1.0 | 5.0 | 0.00 | 0.00 | 0.00 | 57 | 1022.5 |
| 20260902140755 | 74 | 247 | 1.0 | 5.0 | 0.00 | 0.00 | 0.00 | 57 | 1022.5 |
| 20260902140545 | 74 | 246 | 1.0 | 5.0 | 0.00 | 0.00 | 0.00 | 61 | 1022.6 |
| 20260902140340 | 74 | 309 | 1.0 | 4.0 | 0.00 | 0.00 | 0.00 | 58 | 1022.6 |
| 20260902140133 | 74 | 296 | 1.0 | 4.0 | 0.00 | 0.00 | 0.00 | 59 | 1022.6 |
| 20260902135923 | 74 | 276 | 1.0 | 6.0 | 0.00 | 0.00 | 0.00 | 58 | 1022.6 |
| 20260902135717 | 74 | 231 | 1.0 | 6.0 | 0.00 | 0.00 | 0.00 | 60 | 1022.7 |
| 20260902135516 | 74 | 239 | 1.0 | 6.0 | 0.00 | 0.00 | 0.00 | 59 | 1022.6 |
| 20260902135316 | 74 | 283 | 1.0 | 6.0 | 0.00 | 0.00 | 0.00 | 58 | 1022.7 |
| 20260902135106 | 74 | 232 | 1.0 | 6.0 | 0.00 | 0.00 | 0.00 | 59 | 1022.7 |
| 20260902134903 | 74 | 294 | 2.0 | 6.0 | 0.00 | 0.00 | 0.00 | 58 | 1022.7 |
| 20260902134657 | 74 | 304 | 2.0 | 6.0 | 0.00 | 0.00 | 0.00 | 58 | 1022.6 |
| 20260902134455 | 74 | 283 | 2.0 | 6.0 | 0.00 | 0.00 | 0.00 | 57 | 1022.6 |
| 20260902134256 | 74 | 303 | 2.0 | 6.0 | 0.00 | 0.00 | 0.00 | 59 | 1022.7 |
| 20260902133421 | 74 | 246 | 0.0 | 4.0 | 0.00 | 0.00 | 0.00 | 56 | 1022.6 |
| 20260902133213 | 74 | 306 | 0.0 | 4.0 | 0.00 | 0.00 | 0.00 | 57 | 1022.6 |
| 20260902133009 | 74 | 289 | 0.0 | 4.0 | 0.00 | 0.00 | 0.00 | 57 | 1022.6 |
| 20260902132809 | 74 | 286 | 1.0 | 4.0 | 0.00 | 0.00 | 0.00 | 58 | 1022.6 |
| 20260902132610 | 74 | 271 | 1.0 | 4.0 | 0.00 | 0.00 | 0.00 | 57 | 1022.7 |
| 20260902132405 | 74 | 283 | 1.0 | 4.0 | 0.00 | 0.00 | 0.00 | 57 | 1022.6 |
| 20260902131841 | 74 | 221 | 1.0 | 4.0 | 0.00 | 0.00 | 0.00 | 63 | 1022.7 |
| 20260902131637 | 74 | 252 | 0.0 | 4.0 | 0.00 | 0.00 | 0.00 | 62 | 1022.7 |
| 20260902131427 | 74 | 259 | 0.0 | 4.0 | 0.00 | 0.00 | 0.00 | 59 | 1022.8 |
| 20260902131222 | 74 | 291 | 1.0 | 4.0 | 0.00 | 0.00 | 0.00 | 58 | 1022.8 |
| 20260902131015 | 74 | 287 | 1.0 | 4.0 | 0.00 | 0.00 | 0.00 | 60 | 1022.9 |
| 20260902130809 | 74 | 288 | 0.0 | 4.0 | 0.00 | 0.00 | 0.00 | 61 | 1022.8 |
| 20260902130610 | 74 | 287 | 0.0 | 4.0 | 0.00 | 0.00 | 0.00 | 58 | 1022.8 |
| 20260902130400 | 74 | 282 | 0.0 | 4.0 | 0.00 | 0.00 | 0.00 | 57 | 1022.8 |
| 20260902130159 | 74 | 276 | 0.0 | 2.0 | 0.00 | 0.00 | 0.00 | 58 | 1022.8 |
| 20260902125951 | 74 | 250 | 0.0 | 2.0 | 0.00 | 0.00 | 0.00 | 60 | 1022.8 |
| 20260902125752 | 74 | 278 | 0.0 | 2.0 | 0.00 | 0.00 | 0.00 | 59 | 1022.9 |
| 20260902125545 | 74 | 301 | 0.0 | 2.0 | 0.00 | 0.00 | 0.00 | 59 | 1023.0 |
| 20260902125342 | 73 | 221 | 1.0 | 0.0 | 0.00 | 0.00 | 0.00 | 60 | 1022.9 |
| 20260902124811 | 73 | 316 | 2.0 | 5.0 | 0.00 | 0.00 | 0.00 | 60 | 1022.9 |
| 20260902124609 | 73 | 297 | 2.0 | 5.0 | 0.00 | 0.00 | 0.00 | 58 | 1022.9 |
| 20260902124400 | 73 | 285 | 2.0 | 5.0 | 0.00 | 0.00 | 0.00 | 58 | 1022.8 |
| 20260902123835 | 73 | 299 | 1.0 | 5.0 | 0.00 | 0.00 | 0.00 | 57 | 1022.9 |
| 20260902123628 | 73 | 300 | 0.0 | 3.0 | 0.00 | 0.00 | 0.00 | 57 | 1022.8 |
| 20260902123420 | 74 | 298 | 0.0 | 3.0 | 0.00 | 0.00 | 0.00 | 57 | 1022.9 |
| 20260902122856 | 74 | 257 | 0.0 | 1.0 | 0.00 | 0.00 | 0.00 | 58 | 1022.9 |
| 20260902122332 | 74 | 288 | 0.0 | 1.0 | 0.00 | 0.00 | 0.00 | 54 | 1023.0 |
| 20260902122132 | 74 | 295 | 0.0 | 1.0 | 0.00 | 0.00 | 0.00 | 54 | 1023.0 |
| 20260902121933 | 74 | 45 | 0.0 | 1.0 | 0.00 | 0.00 | 0.00 | 57 | 1023.0 |
| 20260902121723 | 74 | 266 | 0.0 | 1.0 | 0.00 | 0.00 | 0.00 | 57 | 1023.0 |
| 20260902121520 | 74 | 276 | 0.0 | 1.0 | 0.00 | 0.00 | 0.00 | 57 | 1023.0 |
| 20260902121313 | 74 | 246 | 0.0 | 3.0 | 0.00 | 0.00 | 0.00 | 57 | 1023.0 |
| 20260902121107 | 74 | 254 | 0.0 | 1.0 | 0.00 | 0.00 | 0.00 | 59 | 1023.0 |
| 20260902120858 | 74 | 49 | 0.0 | 1.0 | 0.00 | 0.00 | 0.00 | 53 | 1023.0 |
| 20260902120655 | 74 | 53 | 0.0 | 1.0 | 0.00 | 0.00 | 0.00 | 55 | 1023.1 |
| 20260902120140 | 74 | 282 | 0.0 | 1.0 | 0.00 | 0.00 | 0.00 | 57 | 1023.2 |
| 20260902115929 | 74 | 261 | 0.0 | 0.0 | 0.00 | 0.00 | 0.00 | 58 | 1023.1 |
| 20260902115720 | 73 | 243 | 0.0 | 6.0 | 0.00 | 0.00 | 0.00 | 61 | 1023.1 |
| 20260902115151 | 73 | 283 | 0.0 | 3.0 | 0.00 | 0.00 | 0.00 | 54 | 1023.2 |
| 20260902114949 | 73 | 249 | 0.0 | 3.0 | 0.00 | 0.00 | 0.00 | 59 | 1023.2 |
| 20260902114739 | 73 | 316 | 0.0 | 3.0 | 0.00 | 0.00 | 0.00 | 54 | 1023.2 |
| 20260902114535 | 74 | 288 | 0.0 | 3.0 | 0.00 | 0.00 | 0.00 | 55 | 1023.2 |
| 20260902114332 | 73 | 283 | 0.0 | 0.0 | 0.00 | 0.00 | 0.00 | 56 | 1023.2 |
| 20260902114124 | 73 | 261 | 0.0 | 6.0 | 0.00 | 0.00 | 0.00 | 56 | 1023.2 |
| 20260902113922 | 73 | 254 | 1.0 | 6.0 | 0.00 | 0.00 | 0.00 | 58 | 1023.2 |
| 20260902113402 | 73 | 296 | 0.0 | 4.0 | 0.00 | 0.00 | 0.00 | 58 | 1023.2 |
| 20260902113203 | 73 | 331 | 0.0 | 3.0 | 0.00 | 0.00 | 0.00 | 54 | 1023.2 |
| 20260902112956 | 73 | 220 | 0.0 | 3.0 | 0.00 | 0.00 | 0.00 | 55 | 1023.3 |
| 20260902112431 | 72 | 287 | 0.0 | 5.0 | 0.00 | 0.00 | 0.00 | 55 | 1023.3 |
| 20260902111909 | 72 | 296 | 1.0 | 5.0 | 0.00 | 0.00 | 0.00 | 53 | 1023.2 |
| 20260902111702 | 72 | 242 | 1.0 | 5.0 | 0.00 | 0.00 | 0.00 | 54 | 1023.2 |
| 20260902111456 | 72 | 300 | 1.0 | 5.0 | 0.00 | 0.00 | 0.00 | 52 | 1023.2 |
| 20260902111249 | 72 | 238 | 1.0 | 5.0 | 0.00 | 0.00 | 0.00 | 55 | 1023.3 |
| 20260902111045 | 72 | 286 | 0.0 | 5.0 | 0.00 | 0.00 | 0.00 | 54 | 1023.3 |
| 20260902110836 | 73 | 270 | 0.0 | 5.0 | 0.00 | 0.00 | 0.00 | 54 | 1023.2 |
| 20260902110317 | 73 | 224 | 0.0 | 0.0 | 0.00 | 0.00 | 0.00 | 58 | 1023.3 |
| 20260902110107 | 73 | 266 | 0.0 | 1.0 | 0.00 | 0.00 | 0.00 | 58 | 1023.3 |
| 20260902105858 | 72 | 289 | 0.0 | 1.0 | 0.00 | 0.00 | 0.00 | 59 | 1023.2 |
| 20260902105648 | 72 | 224 | 0.0 | 1.0 | 0.00 | 0.00 | 0.00 | 58 | 1023.3 |
| 20260902105444 | 72 | 310 | 0.0 | 1.0 | 0.00 | 0.00 | 0.00 | 59 | 1023.3 |
| 20260902104908 | 71 | 249 | 0.0 | 5.0 | 0.00 | 0.00 | 0.00 | 58 | 1023.3 |
| 20260902104707 | 71 | 251 | 0.0 | 5.0 | 0.00 | 0.00 | 0.00 | 58 | 1023.3 |
| 20260902104500 | 71 | 304 | 0.0 | 5.0 | 0.00 | 0.00 | 0.00 | 56 | 1023.3 |
| 20260902104256 | 71 | 303 | 0.0 | 5.0 | 0.00 | 0.00 | 0.00 | 58 | 1023.4 |
| 20260902104052 | 71 | 278 | 1.0 | 5.0 | 0.00 | 0.00 | 0.00 | 55 | 1023.4 |
| 20260902103853 | 70 | 273 | 1.0 | 5.0 | 0.00 | 0.00 | 0.00 | 57 | 1023.4 |
| 20260902103654 | 70 | 263 | 1.0 | 5.0 | 0.00 | 0.00 | 0.00 | 59 | 1023.5 |
| 20260902103454 | 70 | 284 | 1.0 | 5.0 | 0.00 | 0.00 | 0.00 | 56 | 1023.5 |
| 20260902102933 | 71 | 274 | 0.0 | 4.0 | 0.00 | 0.00 | 0.00 | 56 | 1023.5 |
| 20260902102727 | 71 | 302 | 0.0 | 2.0 | 0.00 | 0.00 | 0.00 | 58 | 1023.5 |
| 20260902102528 | 71 | 281 | 0.0 | 1.0 | 0.00 | 0.00 | 0.00 | 58 | 1023.7 |
| 20260902102329 | 71 | 285 | 0.0 | 1.0 | 0.00 | 0.00 | 0.00 | 58 | 1023.7 |
| 20260902102122 | 71 | 306 | 0.0 | 1.0 | 0.00 | 0.00 | 0.00 | 59 | 1023.6 |
| 20260902101923 | 71 | 49 | 0.0 | 1.0 | 0.00 | 0.00 | 0.00 | 62 | 1023.6 |
| 20260902101357 | 71 | 288 | 0.0 | 1.0 | 0.00 | 0.00 | 0.00 | 61 | 1023.7 |
| 20260902101153 | 70 | 89 | 0.0 | 0.0 | 0.00 | 0.00 | 0.00 | 58 | 1023.7 |
| 20260902100626 | 71 | 278 | 0.0 | 2.0 | 0.00 | 0.00 | 0.00 | 59 | 1023.7 |
| 20260902100425 | 71 | 276 | 0.0 | 2.0 | 0.00 | 0.00 | 0.00 | 61 | 1023.7 |
| 20260902100222 | 71 | 290 | 0.0 | 0.0 | 0.00 | 0.00 | 0.00 | 62 | 1023.7 |
| 20260902095654 | 70 | 302 | 0.0 | 3.0 | 0.00 | 0.00 | 0.00 | 59 | 1023.7 |
| 20260902095446 | 70 | 281 | 0.0 | 3.0 | 0.00 | 0.00 | 0.00 | 63 | 1023.7 |
| 20260902095239 | 70 | 237 | 0.0 | 3.0 | 0.00 | 0.00 | 0.00 | 62 | 1023.6 |
| 20260902095040 | 71 | 232 | 0.0 | 3.0 | 0.00 | 0.00 | 0.00 | 62 | 1023.7 |
| 20260902094830 | 70 | 241 | 0.0 | 1.0 | 0.00 | 0.00 | 0.00 | 63 | 1023.7 |
| 20260902094628 | 70 | 224 | 0.0 | 3.0 | 0.00 | 0.00 | 0.00 | 62 | 1023.7 |
| 20260902093740 | 70 | 241 | 0.0 | 3.0 | 0.00 | 0.00 | 0.00 | 64 | 1023.7 |
| 20260902093535 | 69 | 241 | 0.0 | 3.0 | 0.00 | 0.00 | 0.00 | 65 | 1023.6 |
| 20260902093329 | 69 | 253 | 0.0 | 3.0 | 0.00 | 0.00 | 0.00 | 64 | 1023.7 |
| 20260902093124 | 69 | 244 | 0.0 | 3.0 | 0.00 | 0.00 | 0.00 | 66 | 1023.7 |
| 20260902092923 | 69 | 226 | 0.0 | 3.0 | 0.00 | 0.00 | 0.00 | 64 | 1023.8 |
| 20260902092724 | 68 | 240 | 0.0 | 3.0 | 0.00 | 0.00 | 0.00 | 66 | 1023.7 |
| 20260902092517 | 68 | 238 | 0.0 | 2.0 | 0.00 | 0.00 | 0.00 | 67 | 1023.7 |
| 20260902092316 | 68 | 287 | 0.0 | 2.0 | 0.00 | 0.00 | 0.00 | 62 | 1023.7 |
| 20260902092109 | 68 | 236 | 0.0 | 2.0 | 0.00 | 0.00 | 0.00 | 66 | 1023.8 |
| 20260902091907 | 68 | 232 | 0.0 | 2.0 | 0.00 | 0.00 | 0.00 | 65 | 1023.7 |
| 20260902091708 | 68 | 259 | 0.0 | 2.0 | 0.00 | 0.00 | 0.00 | 67 | 1023.7 |
| 20260902091506 | 67 | 297 | 0.0 | 1.0 | 0.00 | 0.00 | 0.00 | 69 | 1023.7 |
| 20260902091305 | 67 | 217 | 0.0 | 1.0 | 0.00 | 0.00 | 0.00 | 69 | 1023.7 |
| 20260902091104 | 67 | 228 | 0.0 | 1.0 | 0.00 | 0.00 | 0.00 | 71 | 1023.8 |
| 20260902090856 | 66 | 292 | 0.0 | 0.0 | 0.00 | 0.00 | 0.00 | 71 | 1023.7 |
| 20260902090330 | 65 | 295 | 0.0 | 3.0 | 0.00 | 0.00 | 0.00 | 70 | 1023.7 |
| 20260902090120 | 65 | 301 | 0.0 | 3.0 | 0.00 | 0.00 | 0.00 | 69 | 1023.7 |
| 20260902085917 | 65 | 284 | 0.0 | 3.0 | 0.00 | 0.00 | 0.00 | 71 | 1023.7 |
| 20260902085344 | 65 | 280 | 0.0 | 3.0 | 0.00 | 0.00 | 0.00 | 72 | 1023.7 |
| 20260902085143 | 65 | 323 | 0.0 | 3.0 | 0.00 | 0.00 | 0.00 | 72 | 1023.7 |
| 20260902084936 | 65 | 298 | 0.0 | 3.0 | 0.00 | 0.00 | 0.00 | 72 | 1023.7 |
| 20260902084728 | 65 | 280 | 0.0 | 3.0 | 0.00 | 0.00 | 0.00 | 74 | 1023.7 |
| 20260902084519 | 65 | 300 | 0.0 | 3.0 | 0.00 | 0.00 | 0.00 | 73 | 1023.7 |
| 20260902084310 | 65 | 280 | 0.0 | 3.0 | 0.00 | 0.00 | 0.00 | 74 | 1023.7 |
| 20260902084103 | 65 | 279 | 0.0 | 3.0 | 0.00 | 0.00 | 0.00 | 73 | 1023.6 |
| 20260902083902 | 65 | 276 | 0.0 | 3.0 | 0.00 | 0.00 | 0.00 | 74 | 1023.5 |
| 20260902083657 | 65 | 284 | 0.0 | 3.0 | 0.00 | 0.00 | 0.00 | 76 | 1023.4 |
| 20260902083457 | 65 | 255 | 0.0 | 2.0 | 0.00 | 0.00 | 0.00 | 76 | 1023.4 |
| 20260902083249 | 65 | 273 | 0.0 | 2.0 | 0.00 | 0.00 | 0.00 | 76 | 1023.5 |
| 20260902083044 | 65 | 266 | 0.0 | 2.0 | 0.00 | 0.00 | 0.00 | 77 | 1023.4 |
| 20260902082519 | 64 | 264 | 0.0 | 0.0 | 0.00 | 0.00 | 0.00 | 77 | 1023.2 |
| 20260902082320 | 64 | 323 | 0.0 | 0.0 | 0.00 | 0.00 | 0.00 | 77 | 1023.2 |
| 20260902082113 | 64 | 336 | 0.0 | 0.0 | 0.00 | 0.00 | 0.00 | 76 | 1023.2 |
| 20260902081910 | 64 | 336 | 0.0 | 0.0 | 0.00 | 0.00 | 0.00 | 75 | 1023.2 |
| 20260902081706 | 65 | 336 | 0.0 | 0.0 | 0.00 | 0.00 | 0.00 | 74 | 1023.2 |
| 20260902081506 | 65 | 336 | 0.0 | 0.0 | 0.00 | 0.00 | 0.00 | 75 | 1023.1 |
| 20260902081307 | 65 | 336 | 0.0 | 0.0 | 0.00 | 0.00 | 0.00 | 74 | 1023.0 |
| 20260902081107 | 65 | 336 | 0.0 | 0.0 | 0.00 | 0.00 | 0.00 | 74 | 1023.0 |
| 20260902080903 | 65 | 336 | 0.0 | 0.0 | 0.00 | 0.00 | 0.00 | 75 | 1023.0 |
| 20260902080653 | 65 | 51 | 0.0 | 0.0 | 0.00 | 0.00 | 0.00 | 76 | 1023.0 |
| 20260902080443 | 65 | 51 | 0.0 | 3.0 | 0.00 | 0.00 | 0.00 | 75 | 1023.0 |
| 20260902080236 | 65 | 351 | 0.0 | 3.0 | 0.00 | 0.00 | 0.00 | 75 | 1023.0 |
| 20260902075714 | 66 | 89 | 0.0 | 2.0 | 0.00 | 0.00 | 0.00 | 75 | 1022.9 |
| 20260902075512 | 65 | 58 | 0.0 | 0.0 | 0.00 | 0.00 | 0.00 | 77 | 1023.0 |
| 20260902075306 | 65 | 272 | 0.0 | 0.0 | 0.00 | 0.00 | 0.00 | 77 | 1022.9 |
| 20260902075100 | 65 | 250 | 0.0 | 2.0 | 0.00 | 0.00 | 0.00 | 75 | 1023.0 |
| 20260902074853 | 65 | 278 | 0.0 | 2.0 | 0.00 | 0.00 | 0.00 | 76 | 1022.9 |
| 20260902074649 | 65 | 266 | 0.0 | 2.0 | 0.00 | 0.00 | 0.00 | 76 | 1022.9 |
| 20260902074446 | 65 | 245 | 0.0 | 2.0 | 0.00 | 0.00 | 0.00 | 75 | 1022.9 |
| 20260902074235 | 65 | 258 | 0.0 | 2.0 | 0.00 | 0.00 | 0.00 | 75 | 1022.9 |
| 20260902074026 | 65 | 245 | 0.0 | 2.0 | 0.00 | 0.00 | 0.00 | 73 | 1023.0 |
| 20260902073821 | 65 | 277 | 0.0 | 2.0 | 0.00 | 0.00 | 0.00 | 73 | 1022.9 |
| 20260902073614 | 65 | 246 | 0.0 | 2.0 | 0.00 | 0.00 | 0.00 | 75 | 1022.9 |
| 20260902073406 | 65 | 216 | 0.0 | 2.0 | 0.00 | 0.00 | 0.00 | 73 | 1022.9 |
| 20260902072838 | 65 | 253 | 0.0 | 0.0 | 0.00 | 0.00 | 0.00 | 72 | 1022.9 |
| 20260902072318 | 65 | 322 | 0.0 | 0.0 | 0.00 | 0.00 | 0.00 | 71 | 1022.8 |
| 20260902072109 | 65 | 322 | 0.0 | 0.0 | 0.00 | 0.00 | 0.00 | 71 | 1022.9 |
| 20260902071902 | 65 | 322 | 0.0 | 0.0 | 0.00 | 0.00 | 0.00 | 71 | 1022.8 |
| 20260902071652 | 65 | 320 | 0.0 | 0.0 | 0.00 | 0.00 | 0.00 | 72 | 1022.8 |
| 20260902071444 | 64 | 319 | 0.0 | 0.0 | 0.00 | 0.00 | 0.00 | 73 | 1022.8 |
| 20260902070603 | 63 | 110 | 1.0 | 4.0 | 0.00 | 0.00 | 0.00 | 76 | 1022.8 |
| 20260902070352 | 62 | 130 | 1.0 | 4.0 | 0.00 | 0.00 | 0.00 | 77 | 1022.6 |
| 20260902070147 | 62 | 93 | 1.0 | 4.0 | 0.00 | 0.00 | 0.00 | 77 | 1022.7 |
| 20260902065937 | 61 | 101 | 1.0 | 4.0 | 0.00 | 0.00 | 0.00 | 78 | 1022.6 |
| 20260902065410 | 60 | 115 | 1.0 | 7.0 | 0.00 | 0.00 | 0.00 | 81 | 1022.6 |
| 20260902065200 | 59 | 96 | 2.0 | 7.0 | 0.00 | 0.00 | 0.00 | 81 | 1022.6 |
| 20260902064633 | 60 | 123 | 3.0 | 7.0 | 0.00 | 0.00 | 0.00 | 80 | 1022.5 |
| 20260902064430 | 60 | 117 | 3.0 | 7.0 | 0.00 | 0.00 | 0.00 | 79 | 1022.6 |
| 20260902064224 | 61 | 137 | 3.0 | 7.0 | 0.00 | 0.00 | 0.00 | 77 | 1022.6 |
| 20260902063340 | 63 | 129 | 1.0 | 3.0 | 0.00 | 0.00 | 0.00 | 72 | 1022.6 |
| 20260902063138 | 63 | 124 | 0.0 | 3.0 | 0.00 | 0.00 | 0.00 | 72 | 1022.6 |
| 20260902062927 | 63 | 113 | 0.0 | 3.0 | 0.00 | 0.00 | 0.00 | 72 | 1022.6 |
| 20260902062722 | 63 | 132 | 0.0 | 2.0 | 0.00 | 0.00 | 0.00 | 74 | 1022.7 |
| 20260902062518 | 63 | 112 | 0.0 | 1.0 | 0.00 | 0.00 | 0.00 | 73 | 1022.6 |
| 20260902062309 | 62 | 96 | 0.0 | 1.0 | 0.00 | 0.00 | 0.00 | 75 | 1022.6 |
| 20260902062102 | 62 | 118 | 0.0 | 1.0 | 0.00 | 0.00 | 0.00 | 76 | 1022.6 |
| 20260902061852 | 61 | 109 | 0.0 | 0.0 | 0.00 | 0.00 | 0.00 | 76 | 1022.6 |
| 20260902061442 | 61 | 68 | 0.0 | 0.0 | 0.00 | 0.00 | 0.00 | 75 | 1022.7 |
| 20260902061238 | 61 | 198 | 0.0 | 0.0 | 0.00 | 0.00 | 0.00 | 75 | 1022.8 |
| 20260902061036 | 60 | 210 | 0.0 | 0.0 | 0.00 | 0.00 | 0.00 | 75 | 1022.8 |
| 20260902060830 | 60 | 217 | 0.0 | 3.0 | 0.00 | 0.00 | 0.00 | 75 | 1022.7 |
| 20260902060620 | 60 | 148 | 0.0 | 3.0 | 0.00 | 0.00 | 0.00 | 75 | 1022.8 |
| 20260902060414 | 60 | 269 | 0.0 | 3.0 | 0.00 | 0.00 | 0.00 | 76 | 1022.7 |
| 20260902060206 | 59 | 233 | 0.0 | 1.0 | 0.00 | 0.00 | 0.00 | 77 | 1022.9 |
| 20260902055958 | 59 | 246 | 0.0 | 0.0 | 0.00 | 0.00 | 0.00 | 78 | 1022.8 |
| 20260902055750 | 58 | 236 | 0.0 | 3.0 | 0.00 | 0.00 | 0.00 | 78 | 1022.8 |
| 20260902055551 | 58 | 244 | 0.0 | 3.0 | 0.00 | 0.00 | 0.00 | 79 | 1022.9 |
| 20260902055343 | 58 | 245 | 0.0 | 0.0 | 0.00 | 0.00 | 0.00 | 79 | 1022.9 |
| 20260902055142 | 57 | 212 | 0.0 | 0.0 | 0.00 | 0.00 | 0.00 | 79 | 1022.8 |
| 20260902054941 | 57 | 227 | 0.0 | 0.0 | 0.00 | 0.00 | 0.00 | 80 | 1022.8 |
| 20260902054741 | 57 | 227 | 0.0 | 1.0 | 0.00 | 0.00 | 0.00 | 80 | 1022.8 |
| 20260902054534 | 57 | 257 | 0.0 | 0.0 | 0.00 | 0.00 | 0.00 | 80 | 1022.8 |
| 20260902054324 | 57 | 257 | 0.0 | 0.0 | 0.00 | 0.00 | 0.00 | 80 | 1022.8 |
| 20260902054119 | 57 | 257 | 0.0 | 0.0 | 0.00 | 0.00 | 0.00 | 80 | 1022.8 |
| 20260902053920 | 57 | 245 | 0.0 | 0.0 | 0.00 | 0.00 | 0.00 | 80 | 1022.8 |
| 20260902053351 | 57 | 255 | 0.0 | 0.0 | 0.00 | 0.00 | 0.00 | 80 | 1022.8 |
| 20260902053150 | 57 | 357 | 0.0 | 0.0 | 0.00 | 0.00 | 0.00 | 79 | 1022.7 |
| 20260902052946 | 57 | 357 | 0.0 | 0.0 | 0.00 | 0.00 | 0.00 | 80 | 1022.8 |
| 20260902052737 | 57 | 357 | 0.0 | 0.0 | 0.00 | 0.00 | 0.00 | 80 | 1022.8 |
| 20260902052535 | 56 | 357 | 0.0 | 0.0 | 0.00 | 0.00 | 0.00 | 81 | 1022.8 |
| 20260902052008 | 56 | 357 | 0.0 | 0.0 | 0.00 | 0.00 | 0.00 | 82 | 1022.6 |
| 20260902051444 | 56 | 357 | 0.0 | 0.0 | 0.00 | 0.00 | 0.00 | 81 | 1022.5 |
| 20260902051236 | 56 | 357 | 0.0 | 0.0 | 0.00 | 0.00 | 0.00 | 82 | 1022.5 |
| 20260902051028 | 56 | 357 | 0.0 | 0.0 | 0.00 | 0.00 | 0.00 | 81 | 1022.5 |
| 20260902050821 | 56 | 357 | 0.0 | 0.0 | 0.00 | 0.00 | 0.00 | 81 | 1022.6 |
| 20260902050257 | 56 | 357 | 0.0 | 0.0 | 0.00 | 0.00 | 0.00 | 82 | 1022.4 |
| 20260902050051 | 56 | 357 | 0.0 | 0.0 | 0.00 | 0.00 | 0.00 | 82 | 1022.4 |
| 20260902045849 | 56 | 357 | 0.0 | 0.0 | 0.00 | 0.00 | 0.00 | 82 | 1022.4 |
| 20260902045644 | 56 | 357 | 0.0 | 0.0 | 0.00 | 0.00 | 0.00 | 82 | 1022.4 |
| 20260902045440 | 56 | 357 | 0.0 | 0.0 | 0.00 | 0.00 | 0.00 | 82 | 1022.4 |
| 20260902045233 | 56 | 359 | 0.0 | 0.0 | 0.00 | 0.00 | 0.00 | 82 | 1022.3 |
| 20260902044710 | 55 | 266 | 0.0 | 0.0 | 0.00 | 0.00 | 0.00 | 82 | 1022.2 |
| 20260902044508 | 56 | 230 | 0.0 | 3.0 | 0.00 | 0.00 | 0.00 | 82 | 1022.2 |
| 20260902044301 | 56 | 118 | 1.0 | 3.0 | 0.00 | 0.00 | 0.00 | 83 | 1022.3 |
| 20260902044048 | 56 | 114 | 1.0 | 3.0 | 0.00 | 0.00 | 0.00 | 84 | 1022.2 |
| 20260902043839 | 56 | 84 | 1.0 | 3.0 | 0.00 | 0.00 | 0.00 | 83 | 1022.3 |
| 20260902043636 | 56 | 131 | 1.0 | 3.0 | 0.00 | 0.00 | 0.00 | 83 | 1022.2 |
| 20260902043435 | 56 | 101 | 0.0 | 3.0 | 0.00 | 0.00 | 0.00 | 83 | 1022.2 |
| 20260902042914 | 56 | 92 | 0.0 | 2.0 | 0.00 | 0.00 | 0.00 | 82 | 1022.2 |
| 20260902042714 | 57 | 103 | 0.0 | 2.0 | 0.00 | 0.00 | 0.00 | 82 | 1022.3 |
| 20260902042508 | 57 | 86 | 0.0 | 2.0 | 0.00 | 0.00 | 0.00 | 82 | 1022.2 |
| 20260902042259 | 57 | 82 | 0.0 | 2.0 | 0.00 | 0.00 | 0.00 | 82 | 1022.3 |
| 20260902042050 | 57 | 91 | 0.0 | 2.0 | 0.00 | 0.00 | 0.00 | 81 | 1022.3 |
| 20260902041847 | 57 | 94 | 0.0 | 2.0 | 0.00 | 0.00 | 0.00 | 81 | 1022.2 |
| 20260902041644 | 57 | 94 | 0.0 | 2.0 | 0.00 | 0.00 | 0.00 | 81 | 1022.2 |
| 20260902041442 | 57 | 120 | 0.0 | 2.0 | 0.00 | 0.00 | 0.00 | 80 | 1022.2 |
| 20260902041233 | 58 | 120 | 0.0 | 2.0 | 0.00 | 0.00 | 0.00 | 80 | 1022.2 |
| 20260902041025 | 58 | 97 | 0.0 | 2.0 | 0.00 | 0.00 | 0.00 | 79 | 1022.2 |
| 20260902035505 | 58 | 232 | 0.0 | 0.0 | 0.00 | 0.00 | 0.00 | 79 | 1022.2 |
| 20260902035300 | 58 | 232 | 0.0 | 0.0 | 0.00 | 0.00 | 0.00 | 79 | 1022.3 |
| 20260902035050 | 58 | 233 | 0.0 | 0.0 | 0.00 | 0.00 | 0.00 | 79 | 1022.3 |
| 20260902034845 | 58 | 235 | 0.0 | 0.0 | 0.00 | 0.00 | 0.00 | 79 | 1022.2 |
| 20260902034313 | 58 | 235 | 0.0 | 0.0 | 0.00 | 0.00 | 0.00 | 79 | 1022.3 |
| 20260902033750 | 59 | 235 | 0.0 | 0.0 | 0.00 | 0.00 | 0.00 | 78 | 1022.2 |
| 20260902033545 | 59 | 235 | 0.0 | 0.0 | 0.00 | 0.00 | 0.00 | 78 | 1022.3 |
| 20260902033338 | 59 | 234 | 0.0 | 2.0 | 0.00 | 0.00 | 0.00 | 78 | 1022.2 |
| 20260902033137 | 59 | 249 | 0.0 | 2.0 | 0.00 | 0.00 | 0.00 | 78 | 1022.2 |
| 20260902032930 | 59 | 242 | 0.0 | 2.0 | 0.00 | 0.00 | 0.00 | 77 | 1022.2 |
| 20260902032725 | 59 | 243 | 0.0 | 3.0 | 0.00 | 0.00 | 0.00 | 77 | 1022.2 |
| 20260902032516 | 59 | 226 | 1.0 | 3.0 | 0.00 | 0.00 | 0.00 | 77 | 1022.2 |
| 20260902032310 | 59 | 224 | 1.0 | 3.0 | 0.00 | 0.00 | 0.00 | 77 | 1022.3 |
| 20260902032108 | 59 | 221 | 1.0 | 3.0 | 0.00 | 0.00 | 0.00 | 77 | 1022.2 |
| 20260902031909 | 59 | 236 | 1.0 | 3.0 | 0.00 | 0.00 | 0.00 | 77 | 1022.1 |
| 20260902031709 | 59 | 223 | 1.0 | 3.0 | 0.00 | 0.00 | 0.00 | 77 | 1022.2 |
| 20260902031147 | 59 | 226 | 0.0 | 3.0 | 0.00 | 0.00 | 0.00 | 78 | 1022.3 |
| 20260902030622 | 59 | 238 | 0.0 | 1.0 | 0.00 | 0.00 | 0.00 | 78 | 1022.3 |
| 20260902025732 | 60 | 245 | 0.0 | 0.0 | 0.00 | 0.00 | 0.00 | 76 | 1022.4 |
| 20260902025523 | 60 | 236 | 0.0 | 2.0 | 0.00 | 0.00 | 0.00 | 75 | 1022.4 |
| 20260902025314 | 60 | 236 | 0.0 | 5.0 | 0.00 | 0.00 | 0.00 | 75 | 1022.4 |
| 20260902025114 | 60 | 231 | 0.0 | 5.0 | 0.00 | 0.00 | 0.00 | 76 | 1022.3 |
| 20260902024907 | 60 | 226 | 1.0 | 5.0 | 0.00 | 0.00 | 0.00 | 76 | 1022.3 |
| 20260902024701 | 60 | 226 | 1.0 | 5.0 | 0.00 | 0.00 | 0.00 | 76 | 1022.4 |
| 20260902024458 | 60 | 236 | 1.0 | 5.0 | 0.00 | 0.00 | 0.00 | 76 | 1022.4 |
| 20260902024249 | 60 | 227 | 1.0 | 5.0 | 0.00 | 0.00 | 0.00 | 75 | 1022.3 |
| 20260902024038 | 60 | 233 | 1.0 | 5.0 | 0.00 | 0.00 | 0.00 | 75 | 1022.4 |
| 20260902023838 | 61 | 229 | 2.0 | 5.0 | 0.00 | 0.00 | 0.00 | 74 | 1022.3 |
| 20260902023633 | 61 | 247 | 1.0 | 5.0 | 0.00 | 0.00 | 0.00 | 73 | 1022.2 |
| 20260902023428 | 61 | 212 | 1.0 | 5.0 | 0.00 | 0.00 | 0.00 | 73 | 1022.2 |
| 20260902023223 | 60 | 220 | 1.0 | 4.0 | 0.00 | 0.00 | 0.00 | 73 | 1022.2 |
| 20260902023018 | 60 | 245 | 1.0 | 4.0 | 0.00 | 0.00 | 0.00 | 74 | 1022.2 |
| 20260902022808 | 60 | 220 | 1.0 | 3.0 | 0.00 | 0.00 | 0.00 | 74 | 1022.2 |
| 20260902022608 | 60 | 249 | 1.0 | 3.0 | 0.00 | 0.00 | 0.00 | 74 | 1022.2 |
| 20260902022359 | 60 | 229 | 1.0 | 4.0 | 0.00 | 0.00 | 0.00 | 74 | 1022.3 |
| 20260902022155 | 60 | 226 | 1.0 | 4.0 | 0.00 | 0.00 | 0.00 | 75 | 1022.3 |
| 20260902021953 | 60 | 213 | 1.0 | 4.0 | 0.00 | 0.00 | 0.00 | 75 | 1022.3 |
| 20260902021429 | 61 | 233 | 1.0 | 4.0 | 0.00 | 0.00 | 0.00 | 74 | 1022.3 |
| 20260902021229 | 61 | 240 | 1.0 | 4.0 | 0.00 | 0.00 | 0.00 | 74 | 1022.2 |
| 20260902021030 | 61 | 247 | 2.0 | 4.0 | 0.00 | 0.00 | 0.00 | 74 | 1022.3 |
| 20260902020829 | 61 | 236 | 1.0 | 4.0 | 0.00 | 0.00 | 0.00 | 74 | 1022.3 |
| 20260902020624 | 61 | 225 | 1.0 | 4.0 | 0.00 | 0.00 | 0.00 | 74 | 1022.3 |
| 20260902020100 | 61 | 238 | 1.0 | 4.0 | 0.00 | 0.00 | 0.00 | 74 | 1022.2 |
| 20260902014903 | 61 | 277 | 2.0 | 4.0 | 0.00 | 0.00 | 0.00 | 74 | 1022.2 |
| 20260902014658 | 61 | 236 | 2.0 | 6.0 | 0.00 | 0.00 | 0.00 | 74 | 1022.2 |
| 20260902014453 | 61 | 201 | 2.0 | 6.0 | 0.00 | 0.00 | 0.00 | 74 | 1022.2 |
| 20260902014253 | 61 | 223 | 2.0 | 6.0 | 0.00 | 0.00 | 0.00 | 74 | 1022.2 |
| 20260902014047 | 61 | 230 | 2.0 | 6.0 | 0.00 | 0.00 | 0.00 | 74 | 1022.2 |
| 20260902013847 | 61 | 240 | 2.0 | 6.0 | 0.00 | 0.00 | 0.00 | 74 | 1022.2 |
| 20260902013641 | 61 | 238 | 2.0 | 6.0 | 0.00 | 0.00 | 0.00 | 73 | 1022.3 |
| 20260902013122 | 61 | 238 | 1.0 | 6.0 | 0.00 | 0.00 | 0.00 | 74 | 1022.3 |
| 20260902012921 | 61 | 264 | 1.0 | 6.0 | 0.00 | 0.00 | 0.00 | 74 | 1022.4 |
| 20260902012712 | 61 | 239 | 1.0 | 4.0 | 0.00 | 0.00 | 0.00 | 74 | 1022.3 |
| 20260902012150 | 60 | 264 | 0.0 | 4.0 | 0.00 | 0.00 | 0.00 | 74 | 1022.4 |
| 20260902011940 | 60 | 251 | 0.0 | 3.0 | 0.00 | 0.00 | 0.00 | 75 | 1022.4 |
| 20260902011731 | 60 | 215 | 0.0 | 3.0 | 0.00 | 0.00 | 0.00 | 75 | 1022.4 |
| 20260902011524 | 60 | 245 | 0.0 | 3.0 | 0.00 | 0.00 | 0.00 | 76 | 1022.4 |
| 20260902011316 | 60 | 234 | 0.0 | 3.0 | 0.00 | 0.00 | 0.00 | 76 | 1022.3 |
| 20260902011117 | 59 | 250 | 0.0 | 2.0 | 0.00 | 0.00 | 0.00 | 77 | 1022.4 |
| 20260902010917 | 59 | 235 | 0.0 | 2.0 | 0.00 | 0.00 | 0.00 | 78 | 1022.5 |
| 20260902010707 | 58 | 222 | 0.0 | 2.0 | 0.00 | 0.00 | 0.00 | 78 | 1022.5 |
| 20260902005826 | 57 | 140 | 1.0 | 4.0 | 0.00 | 0.00 | 0.00 | 78 | 1022.5 |
| 20260902005617 | 57 | 116 | 1.0 | 4.0 | 0.00 | 0.00 | 0.00 | 78 | 1022.6 |
| 20260902005411 | 57 | 94 | 2.0 | 4.0 | 0.00 | 0.00 | 0.00 | 78 | 1022.5 |
| 20260902005212 | 58 | 96 | 2.0 | 4.0 | 0.00 | 0.00 | 0.00 | 78 | 1022.6 |
| 20260902005007 | 58 | 99 | 2.0 | 4.0 | 0.00 | 0.00 | 0.00 | 78 | 1022.6 |
| 20260902004758 | 58 | 108 | 2.0 | 4.0 | 0.00 | 0.00 | 0.00 | 78 | 1022.6 |
| 20260902004550 | 58 | 117 | 1.0 | 4.0 | 0.00 | 0.00 | 0.00 | 78 | 1022.6 |
| 20260902004345 | 58 | 99 | 1.0 | 4.0 | 0.00 | 0.00 | 0.00 | 78 | 1022.6 |
| 20260902004145 | 58 | 120 | 1.0 | 4.0 | 0.00 | 0.00 | 0.00 | 78 | 1022.6 |
| 20260902003936 | 57 | 117 | 1.0 | 3.0 | 0.00 | 0.00 | 0.00 | 78 | 1022.5 |
| 20260902003728 | 57 | 131 | 1.0 | 3.0 | 0.00 | 0.00 | 0.00 | 78 | 1022.6 |
| 20260902003205 | 57 | 121 | 1.0 | 3.0 | 0.00 | 0.00 | 0.00 | 79 | 1022.7 |
| 20260902003004 | 57 | 109 | 1.0 | 3.0 | 0.00 | 0.00 | 0.00 | 79 | 1022.6 |
| 20260902002800 | 57 | 110 | 1.0 | 3.0 | 0.00 | 0.00 | 0.00 | 79 | 1022.7 |
| 20260902002557 | 57 | 103 | 1.0 | 3.0 | 0.00 | 0.00 | 0.00 | 79 | 1022.6 |
| 20260902002351 | 58 | 115 | 1.0 | 3.0 | 0.00 | 0.00 | 0.00 | 79 | 1022.7 |
| 20260902002149 | 58 | 112 | 1.0 | 3.0 | 0.00 | 0.00 | 0.00 | 79 | 1022.6 |
| 20260902001944 | 58 | 97 | 1.0 | 3.0 | 0.00 | 0.00 | 0.00 | 79 | 1022.6 |
| 20260902001743 | 58 | 91 | 1.0 | 3.0 | 0.00 | 0.00 | 0.00 | 78 | 1022.7 |
| 20260902001538 | 58 | 106 | 0.0 | 3.0 | 0.00 | 0.00 | 0.00 | 78 | 1022.6 |
| 20260902001333 | 58 | 122 | 0.0 | 3.0 | 0.00 | 0.00 | 0.00 | 78 | 1022.5 |
| 20260902000807 | 58 | 111 | 0.0 | 1.0 | 0.00 | 0.00 | 0.00 | 77 | 1022.6 |
| 20260902000600 | 58 | 113 | 0.0 | 0.0 | 0.00 | 0.00 | 0.00 | 77 | 1022.6 |
| 20260902000035 | 58 | 113 | 0.0 | 0.0 | 0.00 | 0.00 | 0.00 | 77 | 1022.6 |
| 20260901235829 | 58 | 113 | 0.0 | 0.0 | 0.00 | 0.00 | 0.00 | 77 | 1022.6 |
| 20260901235623 | 58 | 113 | 0.0 | 0.0 | 0.00 | 0.00 | 0.00 | 77 | 1022.5 |
| 20260901235423 | 58 | 113 | 0.0 | 0.0 | 0.00 | 0.00 | 0.00 | 77 | 1022.6 |
| 20260901235221 | 58 | 113 | 0.0 | 1.0 | 0.00 | 0.00 | 0.00 | 77 | 1022.5 |
| 20260901235021 | 58 | 118 | 0.0 | 1.0 | 0.00 | 0.00 | 0.00 | 78 | 1022.5 |
| 20260901234810 | 58 | 126 | 0.0 | 6.0 | 0.00 | 0.00 | 0.00 | 78 | 1022.5 |
| 20260901234600 | 58 | 139 | 0.0 | 6.0 | 0.00 | 0.00 | 0.00 | 78 | 1022.4 |
| 20260901234401 | 58 | 91 | 0.0 | 6.0 | 0.00 | 0.00 | 0.00 | 79 | 1022.5 |
| 20260901234157 | 58 | 86 | 1.0 | 6.0 | 0.00 | 0.00 | 0.00 | 79 | 1022.5 |
| 20260901233949 | 58 | 106 | 1.0 | 6.0 | 0.00 | 0.00 | 0.00 | 79 | 1022.4 |
| 20260901233744 | 58 | 129 | 1.0 | 6.0 | 0.00 | 0.00 | 0.00 | 79 | 1022.4 |
| 20260901233536 | 58 | 79 | 2.0 | 6.0 | 0.00 | 0.00 | 0.00 | 79 | 1022.4 |
| 20260901233333 | 58 | 97 | 2.0 | 6.0 | 0.00 | 0.00 | 0.00 | 79 | 1022.4 |
| 20260901233122 | 58 | 98 | 2.0 | 6.0 | 0.00 | 0.00 | 0.00 | 79 | 1022.4 |
| 20260901232553 | 58 | 125 | 1.0 | 5.0 | 0.00 | 0.00 | 0.00 | 79 | 1022.3 |
| 20260901232345 | 58 | 116 | 1.0 | 3.0 | 0.00 | 0.00 | 0.00 | 78 | 1022.3 |
| 20260901232138 | 58 | 98 | 0.0 | 3.0 | 0.00 | 0.00 | 0.00 | 78 | 1022.4 |
| 20260901231928 | 58 | 104 | 0.0 | 3.0 | 0.00 | 0.00 | 0.00 | 77 | 1022.3 |
| 20260901231728 | 59 | 56 | 0.0 | 2.0 | 0.00 | 0.00 | 0.00 | 76 | 1022.3 |
| 20260901231518 | 59 | 65 | 0.0 | 1.0 | 0.00 | 0.00 | 0.00 | 76 | 1022.3 |
| 20260901231310 | 59 | 158 | 0.0 | 1.0 | 0.00 | 0.00 | 0.00 | 76 | 1022.3 |
| 20260901231103 | 58 | 154 | 0.0 | 1.0 | 0.00 | 0.00 | 0.00 | 76 | 1022.3 |
| 20260901230901 | 58 | 122 | 0.0 | 4.0 | 0.00 | 0.00 | 0.00 | 77 | 1022.3 |
| 20260901230655 | 58 | 6 | 1.0 | 4.0 | 0.00 | 0.00 | 0.00 | 78 | 1022.2 |
| 20260901230445 | 58 | 75 | 2.0 | 7.0 | 0.00 | 0.00 | 0.00 | 78 | 1022.3 |
| 20260901230238 | 58 | 103 | 2.0 | 7.0 | 0.00 | 0.00 | 0.00 | 78 | 1022.2 |
| 20260901230033 | 59 | 125 | 3.0 | 7.0 | 0.00 | 0.00 | 0.00 | 78 | 1022.3 |
| 20260901225822 | 59 | 147 | 3.0 | 7.0 | 0.00 | 0.00 | 0.00 | 78 | 1022.3 |
| 20260901225612 | 59 | 133 | 3.0 | 7.0 | 0.00 | 0.00 | 0.00 | 78 | 1022.3 |
| 20260901225409 | 58 | 105 | 4.0 | 7.0 | 0.00 | 0.00 | 0.00 | 78 | 1022.3 |
| 20260901225201 | 58 | 117 | 4.0 | 7.0 | 0.00 | 0.00 | 0.00 | 79 | 1022.3 |
| 20260901224955 | 58 | 94 | 4.0 | 7.0 | 0.00 | 0.00 | 0.00 | 79 | 1022.3 |
| 20260901224756 | 58 | 107 | 4.0 | 7.0 | 0.00 | 0.00 | 0.00 | 79 | 1022.2 |
| 20260901224550 | 58 | 129 | 4.0 | 7.0 | 0.00 | 0.00 | 0.00 | 80 | 1022.3 |
| 20260901224347 | 58 | 110 | 4.0 | 6.0 | 0.00 | 0.00 | 0.00 | 80 | 1022.3 |
| 20260901224138 | 58 | 110 | 4.0 | 7.0 | 0.00 | 0.00 | 0.00 | 80 | 1022.3 |
| 20260901223929 | 58 | 106 | 4.0 | 7.0 | 0.00 | 0.00 | 0.00 | 80 | 1022.3 |
| 20260901223404 | 58 | 115 | 4.0 | 7.0 | 0.00 | 0.00 | 0.00 | 80 | 1022.3 |
| 20260901223156 | 58 | 131 | 4.0 | 7.0 | 0.00 | 0.00 | 0.00 | 80 | 1022.2 |
| 20260901222946 | 58 | 124 | 4.0 | 7.0 | 0.00 | 0.00 | 0.00 | 79 | 1022.2 |
| 20260901222742 | 58 | 107 | 4.0 | 7.0 | 0.00 | 0.00 | 0.00 | 79 | 1022.3 |
| 20260901222541 | 58 | 121 | 4.0 | 7.0 | 0.00 | 0.00 | 0.00 | 79 | 1022.2 |
| 20260901222331 | 58 | 98 | 4.0 | 7.0 | 0.00 | 0.00 | 0.00 | 79 | 1022.3 |
| 20260901222126 | 58 | 119 | 4.0 | 7.0 | 0.00 | 0.00 | 0.00 | 79 | 1022.2 |
| 20260901221926 | 58 | 112 | 4.0 | 7.0 | 0.00 | 0.00 | 0.00 | 79 | 1022.2 |
| 20260901221726 | 58 | 92 | 4.0 | 7.0 | 0.00 | 0.00 | 0.00 | 79 | 1022.2 |
| 20260901221526 | 58 | 109 | 4.0 | 7.0 | 0.00 | 0.00 | 0.00 | 79 | 1022.1 |
| 20260901221319 | 58 | 136 | 4.0 | 7.0 | 0.00 | 0.00 | 0.00 | 79 | 1022.2 |
| 20260901221111 | 59 | 108 | 4.0 | 6.0 | 0.00 | 0.00 | 0.00 | 78 | 1022.1 |
| 20260901220902 | 59 | 108 | 4.0 | 7.0 | 0.00 | 0.00 | 0.00 | 78 | 1022.2 |
| 20260901220703 | 59 | 127 | 4.0 | 7.0 | 0.00 | 0.00 | 0.00 | 78 | 1022.3 |
| 20260901220500 | 59 | 124 | 4.0 | 7.0 | 0.00 | 0.00 | 0.00 | 78 | 1022.3 |
| 20260901220255 | 59 | 127 | 4.0 | 7.0 | 0.00 | 0.00 | 0.00 | 78 | 1022.3 |
| 20260901215737 | 59 | 115 | 4.0 | 7.0 | 0.00 | 0.00 | 0.00 | 77 | 1022.3 |
| 20260901215527 | 59 | 125 | 4.0 | 7.0 | 0.00 | 0.00 | 0.00 | 77 | 1022.3 |
| 20260901215318 | 59 | 99 | 4.0 | 7.0 | 0.00 | 0.00 | 0.00 | 77 | 1022.4 |
| 20260901215110 | 59 | 100 | 4.0 | 7.0 | 0.00 | 0.00 | 0.00 | 77 | 1022.4 |
| 20260901214900 | 59 | 117 | 4.0 | 6.0 | 0.00 | 0.00 | 0.00 | 77 | 1022.3 |
| 20260901214656 | 59 | 113 | 4.0 | 6.0 | 0.00 | 0.00 | 0.00 | 77 | 1022.2 |
| 20260901214456 | 59 | 109 | 3.0 | 6.0 | 0.00 | 0.00 | 0.00 | 77 | 1022.4 |
| 20260901214248 | 59 | 105 | 3.0 | 6.0 | 0.00 | 0.00 | 0.00 | 77 | 1022.4 |
| 20260901214041 | 59 | 76 | 3.0 | 6.0 | 0.00 | 0.00 | 0.00 | 77 | 1022.3 |
| 20260901213835 | 59 | 103 | 3.0 | 6.0 | 0.00 | 0.00 | 0.00 | 77 | 1022.4 |
| 20260901213631 | 60 | 134 | 4.0 | 6.0 | 0.00 | 0.00 | 0.00 | 77 | 1022.4 |
| 20260901213425 | 60 | 117 | 4.0 | 6.0 | 0.00 | 0.00 | 0.00 | 77 | 1022.4 |
| 20260901213219 | 60 | 111 | 4.0 | 6.0 | 0.00 | 0.00 | 0.00 | 77 | 1022.3 |
| 20260901213017 | 60 | 82 | 4.0 | 6.0 | 0.00 | 0.00 | 0.00 | 77 | 1022.3 |
| 20260901212809 | 60 | 113 | 4.0 | 6.0 | 0.00 | 0.00 | 0.00 | 77 | 1022.2 |
| 20260901212607 | 60 | 139 | 3.0 | 5.0 | 0.00 | 0.00 | 0.00 | 77 | 1022.3 |
| 20260901212404 | 60 | 134 | 3.0 | 5.0 | 0.00 | 0.00 | 0.00 | 77 | 1022.3 |
| 20260901212157 | 60 | 126 | 3.0 | 5.0 | 0.00 | 0.00 | 0.00 | 77 | 1022.3 |
| 20260901211955 | 60 | 120 | 3.0 | 5.0 | 0.00 | 0.00 | 0.00 | 77 | 1022.3 |
| 20260901211439 | 60 | 116 | 3.0 | 5.0 | 0.00 | 0.00 | 0.00 | 76 | 1022.4 |
| 20260901211234 | 60 | 103 | 3.0 | 5.0 | 0.00 | 0.00 | 0.00 | 76 | 1022.4 |
| 20260901211029 | 60 | 106 | 3.0 | 5.0 | 0.00 | 0.00 | 0.00 | 76 | 1022.5 |
| 20260901210830 | 60 | 80 | 3.0 | 5.0 | 0.00 | 0.00 | 0.00 | 75 | 1022.5 |
| 20260901210307 | 60 | 119 | 3.0 | 5.0 | 0.00 | 0.00 | 0.00 | 75 | 1022.5 |
| 20260901210058 | 61 | 112 | 3.0 | 5.0 | 0.00 | 0.00 | 0.00 | 75 | 1022.5 |
| 20260901205849 | 61 | 110 | 2.0 | 5.0 | 0.00 | 0.00 | 0.00 | 75 | 1022.6 |
| 20260901205642 | 61 | 115 | 2.0 | 4.0 | 0.00 | 0.00 | 0.00 | 75 | 1022.5 |
| 20260901205438 | 61 | 124 | 2.0 | 4.0 | 0.00 | 0.00 | 0.00 | 74 | 1022.5 |
| 20260901205233 | 61 | 125 | 2.0 | 4.0 | 0.00 | 0.00 | 0.00 | 74 | 1022.6 |
| 20260901205027 | 61 | 114 | 2.0 | 4.0 | 0.00 | 0.00 | 0.00 | 74 | 1022.6 |
| 20260901204823 | 61 | 116 | 2.0 | 4.0 | 0.00 | 0.00 | 0.00 | 74 | 1022.6 |
| 20260901204613 | 61 | 119 | 2.0 | 4.0 | 0.00 | 0.00 | 0.00 | 74 | 1022.6 |
| 20260901204406 | 61 | 129 | 2.0 | 4.0 | 0.00 | 0.00 | 0.00 | 74 | 1022.6 |
| 20260901204204 | 61 | 101 | 2.0 | 4.0 | 0.00 | 0.00 | 0.00 | 73 | 1022.6 |
| 20260901204000 | 61 | 136 | 2.0 | 4.0 | 0.00 | 0.00 | 0.00 | 73 | 1022.6 |
| 20260901203751 | 61 | 119 | 2.0 | 4.0 | 0.00 | 0.00 | 0.00 | 73 | 1022.6 |
| 20260901202553 | 62 | 127 | 1.0 | 3.0 | 0.00 | 0.00 | 0.00 | 71 | 1022.5 |
| 20260901202347 | 62 | 123 | 1.0 | 3.0 | 0.00 | 0.00 | 0.00 | 71 | 1022.6 |
| 20260901202142 | 62 | 107 | 1.0 | 2.0 | 0.00 | 0.00 | 0.00 | 71 | 1022.6 |
| 20260901201940 | 62 | 116 | 1.0 | 2.0 | 0.00 | 0.00 | 0.00 | 71 | 1022.6 |
| 20260901201738 | 62 | 113 | 1.0 | 2.0 | 0.00 | 0.00 | 0.00 | 71 | 1022.5 |
| 20260901201528 | 63 | 105 | 1.0 | 2.0 | 0.00 | 0.00 | 0.00 | 71 | 1022.6 |
| 20260901201324 | 63 | 103 | 1.0 | 2.0 | 0.00 | 0.00 | 0.00 | 70 | 1022.6 |
| 20260901200800 | 63 | 115 | 1.0 | 2.0 | 0.00 | 0.00 | 0.00 | 70 | 1022.6 |
| 20260901195912 | 63 | 100 | 1.0 | 2.0 | 0.00 | 0.00 | 0.00 | 69 | 1022.6 |
| 20260901195713 | 63 | 122 | 1.0 | 2.0 | 0.00 | 0.00 | 0.00 | 69 | 1022.5 |
| 20260901195513 | 63 | 113 | 1.0 | 2.0 | 0.00 | 0.00 | 0.00 | 69 | 1022.5 |
| 20260901195306 | 63 | 93 | 0.0 | 2.0 | 0.00 | 0.00 | 0.00 | 69 | 1022.5 |
| 20260901195102 | 63 | 107 | 0.0 | 2.0 | 0.00 | 0.00 | 0.00 | 69 | 1022.5 |
| 20260901194851 | 63 | 129 | 0.0 | 2.0 | 0.00 | 0.00 | 0.00 | 69 | 1022.5 |